Year,Month,Day,Hour,Minute,Value (Times are PST for temperature in C)
2012,05,19,00,00,8.00
2012,05,19,00,01,8.00
2012,05,19,00,02,8.00
2012,05,19,00,03,7.90
2012,05,19,00,04,7.90
2012,05,19,00,05,7.80
2012,05,19,00,06,7.80
2012,05,19,00,07,7.80
2012,05,19,00,08,7.80
2012,05,19,00,09,7.80
2012,05,19,00,10,7.80
2012,05,19,00,11,7.80
2012,05,19,00,12,7.90
2012,05,19,00,13,7.90
2012,05,19,00,14,8.00
2012,05,19,00,15,8.00
2012,05,19,00,16,8.00
2012,05,19,00,17,8.10
2012,05,19,00,18,8.10
2012,05,19,00,19,8.20
2012,05,19,00,20,8.20
2012,05,19,00,21,8.20
2012,05,19,00,22,8.20
2012,05,19,00,23,8.30
2012,05,19,00,24,8.30
2012,05,19,00,25,8.30
2012,05,19,00,26,8.40
2012,05,19,00,27,8.40
2012,05,19,00,28,8.40
2012,05,19,00,29,8.50
2012,05,19,00,30,8.50
2012,05,19,00,31,8.60
2012,05,19,00,32,8.60
2012,05,19,00,33,8.70
2012,05,19,00,34,8.70
2012,05,19,00,35,8.70
2012,05,19,00,36,8.80
2012,05,19,00,37,8.80
2012,05,19,00,38,8.80
2012,05,19,00,39,8.90
2012,05,19,00,40,8.80
2012,05,19,00,41,8.80
2012,05,19,00,42,8.80
2012,05,19,00,43,8.80
2012,05,19,00,44,8.80
2012,05,19,00,45,8.80
2012,05,19,00,46,8.80
2012,05,19,00,47,8.80
2012,05,19,00,48,8.80
2012,05,19,00,49,8.70
2012,05,19,00,50,8.70
2012,05,19,00,51,8.70
2012,05,19,00,52,8.70
2012,05,19,00,53,8.70
2012,05,19,00,54,8.70
2012,05,19,00,55,8.60
2012,05,19,00,56,8.60
2012,05,19,00,57,8.60
2012,05,19,00,58,8.60
2012,05,19,00,59,8.50
2012,05,19,01,00,8.50
2012,05,19,01,01,8.50
2012,05,19,01,02,8.40
2012,05,19,01,03,8.40
2012,05,19,01,04,8.30
2012,05,19,01,05,8.30
2012,05,19,01,06,8.30
2012,05,19,01,07,8.20
2012,05,19,01,08,8.20
2012,05,19,01,09,8.20
2012,05,19,01,10,8.10
2012,05,19,01,11,8.10
2012,05,19,01,12,8.10
2012,05,19,01,13,8.00
2012,05,19,01,14,8.00
2012,05,19,01,15,7.90
2012,05,19,01,16,7.90
2012,05,19,01,17,7.90
2012,05,19,01,18,7.90
2012,05,19,01,19,7.90
2012,05,19,01,20,7.90
2012,05,19,01,21,7.90
2012,05,19,01,22,8.00
2012,05,19,01,23,8.00
2012,05,19,01,24,8.00
2012,05,19,01,25,8.10
2012,05,19,01,26,8.10
2012,05,19,01,27,8.20
2012,05,19,01,28,8.20
2012,05,19,01,29,8.20
2012,05,19,01,30,8.20
2012,05,19,01,31,8.20
2012,05,19,01,32,8.20
2012,05,19,01,33,8.30
2012,05,19,01,34,8.30
2012,05,19,01,35,8.30
2012,05,19,01,36,8.30
2012,05,19,01,37,8.20
2012,05,19,01,38,8.10
2012,05,19,01,39,8.00
2012,05,19,01,40,7.90
2012,05,19,01,41,7.90
2012,05,19,01,42,7.80
2012,05,19,01,43,7.80
2012,05,19,01,44,7.80
2012,05,19,01,45,7.80
2012,05,19,01,46,7.70
2012,05,19,01,47,7.70
2012,05,19,01,48,7.70
2012,05,19,01,49,7.70
2012,05,19,01,50,7.70
2012,05,19,01,51,7.80
2012,05,19,01,52,7.80
2012,05,19,01,53,7.80
2012,05,19,01,54,7.80
2012,05,19,01,55,7.80
2012,05,19,01,56,7.80
2012,05,19,01,57,7.80
2012,05,19,01,58,7.80
2012,05,19,01,59,7.70
2012,05,19,02,00,7.70
2012,05,19,02,01,7.60
2012,05,19,02,02,7.50
2012,05,19,02,03,7.50
2012,05,19,02,04,7.30
2012,05,19,02,05,7.30
2012,05,19,02,06,7.10
2012,05,19,02,07,7.00
2012,05,19,02,08,7.00
2012,05,19,02,09,6.90
2012,05,19,02,10,6.80
2012,05,19,02,11,6.80
2012,05,19,02,12,6.70
2012,05,19,02,13,6.70
2012,05,19,02,14,6.60
2012,05,19,02,15,6.60
2012,05,19,02,16,6.60
2012,05,19,02,17,6.50
2012,05,19,02,18,6.40
2012,05,19,02,19,6.40
2012,05,19,02,20,6.40
2012,05,19,02,21,6.40
2012,05,19,02,22,6.40
2012,05,19,02,23,6.40
2012,05,19,02,24,6.40
2012,05,19,02,25,6.40
2012,05,19,02,26,6.50
2012,05,19,02,27,6.60
2012,05,19,02,28,6.60
2012,05,19,02,29,6.60
2012,05,19,02,30,6.60
2012,05,19,02,31,6.70
2012,05,19,02,32,6.70
2012,05,19,02,33,6.70
2012,05,19,02,34,6.80
2012,05,19,02,35,6.80
2012,05,19,02,36,6.80
2012,05,19,02,37,6.80
2012,05,19,02,38,6.80
2012,05,19,02,39,6.80
2012,05,19,02,40,6.80
2012,05,19,02,41,6.80
2012,05,19,02,42,6.90
2012,05,19,02,43,6.80
2012,05,19,02,44,6.80
2012,05,19,02,45,6.80
2012,05,19,02,46,6.80
2012,05,19,02,47,6.70
2012,05,19,02,48,6.70
2012,05,19,02,49,6.70
2012,05,19,02,50,6.60
2012,05,19,02,51,6.60
2012,05,19,02,52,6.50
2012,05,19,02,53,6.40
2012,05,19,02,54,6.40
2012,05,19,02,55,6.30
2012,05,19,02,56,6.30
2012,05,19,02,57,6.20
2012,05,19,02,58,6.20
2012,05,19,02,59,6.20
2012,05,19,03,00,6.10
2012,05,19,03,01,6.10
2012,05,19,03,02,6.00
2012,05,19,03,03,6.00
2012,05,19,03,04,6.00
2012,05,19,03,05,5.90
2012,05,19,03,06,5.90
2012,05,19,03,07,5.80
2012,05,19,03,08,5.80
2012,05,19,03,09,5.80
2012,05,19,03,10,5.70
2012,05,19,03,11,5.70
2012,05,19,03,12,5.60
2012,05,19,03,13,5.50
2012,05,19,03,14,5.50
2012,05,19,03,15,5.40
2012,05,19,03,16,5.40
2012,05,19,03,17,5.40
2012,05,19,03,18,5.40
2012,05,19,03,19,5.40
2012,05,19,03,20,5.40
2012,05,19,03,21,5.50
2012,05,19,03,22,5.50
2012,05,19,03,23,5.40
2012,05,19,03,24,5.40
2012,05,19,03,25,5.40
2012,05,19,03,26,5.40
2012,05,19,03,27,5.40
2012,05,19,03,28,5.40
2012,05,19,03,29,5.40
2012,05,19,03,30,5.30
2012,05,19,03,31,5.30
2012,05,19,03,32,5.30
2012,05,19,03,33,5.20
2012,05,19,03,34,5.20
2012,05,19,03,35,5.10
2012,05,19,03,36,5.10
2012,05,19,03,37,5.10
2012,05,19,03,38,5.10
2012,05,19,03,39,5.10
2012,05,19,03,40,5.10
2012,05,19,03,41,5.10
2012,05,19,03,42,5.00
2012,05,19,03,43,4.90
2012,05,19,03,44,4.90
2012,05,19,03,45,4.90
2012,05,19,03,46,4.90
2012,05,19,03,47,4.90
2012,05,19,03,48,4.90
2012,05,19,03,49,4.80
2012,05,19,03,50,4.80
2012,05,19,03,51,4.80
2012,05,19,03,52,4.70
2012,05,19,03,53,4.70
2012,05,19,03,54,4.70
2012,05,19,03,55,4.60
2012,05,19,03,56,4.60
2012,05,19,03,57,4.60
2012,05,19,03,58,4.60
2012,05,19,03,59,4.60
2012,05,19,04,00,4.50
2012,05,19,04,01,4.50
2012,05,19,04,02,4.50
2012,05,19,04,03,4.40
2012,05,19,04,04,4.40
2012,05,19,04,05,4.40
2012,05,19,04,06,4.40
2012,05,19,04,07,4.30
2012,05,19,04,08,4.30
2012,05,19,04,09,4.30
2012,05,19,04,10,4.30
2012,05,19,04,11,4.30
2012,05,19,04,12,4.20
2012,05,19,04,13,4.20
2012,05,19,04,14,4.20
2012,05,19,04,15,4.20
2012,05,19,04,16,4.20
2012,05,19,04,17,4.20
2012,05,19,04,18,4.20
2012,05,19,04,19,4.20
2012,05,19,04,20,4.20
2012,05,19,04,21,4.20
2012,05,19,04,22,4.20
2012,05,19,04,23,4.20
2012,05,19,04,24,4.20
2012,05,19,04,25,4.20
2012,05,19,04,26,4.20
2012,05,19,04,27,4.10
2012,05,19,04,28,4.10
2012,05,19,04,29,4.10
2012,05,19,04,30,4.00
2012,05,19,04,31,4.00
2012,05,19,04,32,4.00
2012,05,19,04,33,4.00
2012,05,19,04,34,3.90
2012,05,19,04,35,3.90
2012,05,19,04,36,3.90
2012,05,19,04,37,3.80
2012,05,19,04,38,3.80
2012,05,19,04,39,3.80
2012,05,19,04,40,3.80
2012,05,19,04,41,3.80
2012,05,19,04,42,3.80
2012,05,19,04,43,3.80
2012,05,19,04,44,3.80
2012,05,19,04,45,3.80
2012,05,19,04,46,3.80
2012,05,19,04,47,3.80
2012,05,19,04,48,3.80
2012,05,19,04,49,3.80
2012,05,19,04,50,3.70
2012,05,19,04,51,3.70
2012,05,19,04,52,3.70
2012,05,19,04,53,3.70
2012,05,19,04,54,3.70
2012,05,19,04,55,3.70
2012,05,19,04,56,3.60
2012,05,19,04,57,3.60
2012,05,19,04,58,3.60
2012,05,19,04,59,3.60
2012,05,19,05,00,3.60
2012,05,19,05,01,3.60
2012,05,19,05,02,3.60
2012,05,19,05,03,3.60
2012,05,19,05,04,3.50
2012,05,19,05,05,3.50
2012,05,19,05,06,3.50
2012,05,19,05,07,3.50
2012,05,19,05,08,3.50
2012,05,19,05,09,3.50
2012,05,19,05,10,3.50
2012,05,19,05,11,3.50
2012,05,19,05,12,3.50
2012,05,19,05,13,3.50
2012,05,19,05,14,3.50
2012,05,19,05,15,3.50
2012,05,19,05,16,3.50
2012,05,19,05,17,3.40
2012,05,19,05,18,3.40
2012,05,19,05,19,3.40
2012,05,19,05,20,3.40
2012,05,19,05,21,3.40
2012,05,19,05,22,3.40
2012,05,19,05,23,3.40
2012,05,19,05,24,3.40
2012,05,19,05,25,3.40
2012,05,19,05,26,3.40
2012,05,19,05,27,3.30
2012,05,19,05,28,3.30
2012,05,19,05,29,3.30
2012,05,19,05,30,3.30
2012,05,19,05,31,3.30
2012,05,19,05,32,3.30
2012,05,19,05,33,3.30
2012,05,19,05,34,3.30
2012,05,19,05,35,3.30
2012,05,19,05,36,3.30
2012,05,19,05,37,3.30
2012,05,19,05,38,3.30
2012,05,19,05,39,3.30
2012,05,19,05,40,3.30
2012,05,19,05,41,3.30
2012,05,19,05,42,3.30
2012,05,19,05,43,3.30
2012,05,19,05,44,3.30
2012,05,19,05,45,3.30
2012,05,19,05,46,3.30
2012,05,19,05,47,3.30
2012,05,19,05,48,3.30
2012,05,19,05,49,3.30
2012,05,19,05,50,3.40
2012,05,19,05,51,3.40
2012,05,19,05,52,3.40
2012,05,19,05,53,3.40
2012,05,19,05,54,3.40
2012,05,19,05,55,3.40
2012,05,19,05,56,3.40
2012,05,19,05,57,3.40
2012,05,19,05,58,3.40
2012,05,19,05,59,3.40
2012,05,19,06,00,3.40
2012,05,19,06,01,3.40
2012,05,19,06,02,3.40
2012,05,19,06,03,3.40
2012,05,19,06,04,3.40
2012,05,19,06,05,3.40
2012,05,19,06,06,3.40
2012,05,19,06,07,3.40
2012,05,19,06,08,3.40
2012,05,19,06,09,3.40
2012,05,19,06,10,3.40
2012,05,19,06,11,3.40
2012,05,19,06,12,3.40
2012,05,19,06,13,3.40
2012,05,19,06,14,3.40
2012,05,19,06,15,3.40
2012,05,19,06,16,3.40
2012,05,19,06,17,3.40
2012,05,19,06,18,3.40
2012,05,19,06,19,3.40
2012,05,19,06,20,3.50
2012,05,19,06,21,3.50
2012,05,19,06,22,3.50
2012,05,19,06,23,3.60
2012,05,19,06,24,3.60
2012,05,19,06,25,3.60
2012,05,19,06,26,3.70
2012,05,19,06,27,3.70
2012,05,19,06,28,3.70
2012,05,19,06,29,3.80
2012,05,19,06,30,3.80
2012,05,19,06,31,3.80
2012,05,19,06,32,3.80
2012,05,19,06,33,3.90
2012,05,19,06,34,3.90
2012,05,19,06,35,4.00
2012,05,19,06,36,4.00
2012,05,19,06,37,4.10
2012,05,19,06,38,4.10
2012,05,19,06,39,4.20
2012,05,19,06,40,4.20
2012,05,19,06,41,4.20
2012,05,19,06,42,4.30
2012,05,19,06,43,4.30
2012,05,19,06,44,4.40
2012,05,19,06,45,4.50
2012,05,19,06,46,4.50
2012,05,19,06,47,4.60
2012,05,19,06,48,4.60
2012,05,19,06,49,4.60
2012,05,19,06,50,4.60
2012,05,19,06,51,4.70
2012,05,19,06,52,4.70
2012,05,19,06,53,4.80
2012,05,19,06,54,4.90
2012,05,19,06,55,4.90
2012,05,19,06,56,5.00
2012,05,19,06,57,5.10
2012,05,19,06,58,5.10
2012,05,19,06,59,5.20
2012,05,19,07,00,5.30
2012,05,19,07,01,5.30
2012,05,19,07,02,5.40
2012,05,19,07,03,5.40
2012,05,19,07,04,5.50
2012,05,19,07,05,5.60
2012,05,19,07,06,5.70
2012,05,19,07,07,5.70
2012,05,19,07,08,5.80
2012,05,19,07,09,5.90
2012,05,19,07,10,5.90
2012,05,19,07,11,6.00
2012,05,19,07,12,6.10
2012,05,19,07,13,6.20
2012,05,19,07,14,6.20
2012,05,19,07,15,6.30
2012,05,19,07,16,6.40
2012,05,19,07,17,6.50
2012,05,19,07,18,6.60
2012,05,19,07,19,6.70
2012,05,19,07,20,6.80
2012,05,19,07,21,6.90
2012,05,19,07,22,7.00
2012,05,19,07,23,7.10
2012,05,19,07,24,7.20
2012,05,19,07,25,7.30
2012,05,19,07,26,7.40
2012,05,19,07,27,7.50
2012,05,19,07,28,7.60
2012,05,19,07,29,7.70
2012,05,19,07,30,7.80
2012,05,19,07,31,7.80
2012,05,19,07,32,7.90
2012,05,19,07,33,8.00
2012,05,19,07,34,8.10
2012,05,19,07,35,8.20
2012,05,19,07,36,8.20
2012,05,19,07,37,8.30
2012,05,19,07,38,8.40
2012,05,19,07,39,8.50
2012,05,19,07,40,8.50
2012,05,19,07,41,8.70
2012,05,19,07,42,8.70
2012,05,19,07,43,8.80
2012,05,19,07,44,9.00
2012,05,19,07,45,9.20
2012,05,19,07,46,9.40
2012,05,19,07,47,9.60
2012,05,19,07,48,9.70
2012,05,19,07,49,9.80
2012,05,19,07,50,9.90
2012,05,19,07,51,10.10
2012,05,19,07,52,10.20
2012,05,19,07,53,10.30
2012,05,19,07,54,10.40
2012,05,19,07,55,10.30
2012,05,19,07,56,10.30
2012,05,19,07,57,10.20
2012,05,19,07,58,10.20
2012,05,19,07,59,10.20
2012,05,19,08,00,10.20
2012,05,19,08,01,10.10
2012,05,19,08,02,10.20
2012,05,19,08,03,10.10
2012,05,19,08,04,10.10
2012,05,19,08,05,10.10
2012,05,19,08,06,10.10
2012,05,19,08,07,10.10
2012,05,19,08,08,10.10
2012,05,19,08,09,10.20
2012,05,19,08,10,10.20
2012,05,19,08,11,10.30
2012,05,19,08,12,10.40
2012,05,19,08,13,10.50
2012,05,19,08,14,10.60
2012,05,19,08,15,10.60
2012,05,19,08,16,10.70
2012,05,19,08,17,10.80
2012,05,19,08,18,10.80
2012,05,19,08,19,10.90
2012,05,19,08,20,10.90
2012,05,19,08,21,11.00
2012,05,19,08,22,11.10
2012,05,19,08,23,11.10
2012,05,19,08,24,11.10
2012,05,19,08,25,11.10
2012,05,19,08,26,11.10
2012,05,19,08,27,11.10
2012,05,19,08,28,11.10
2012,05,19,08,29,11.20
2012,05,19,08,30,11.30
2012,05,19,08,31,11.30
2012,05,19,08,32,11.40
2012,05,19,08,33,11.40
2012,05,19,08,34,11.40
2012,05,19,08,35,11.40
2012,05,19,08,36,11.50
2012,05,19,08,37,11.60
2012,05,19,08,38,11.60
2012,05,19,08,39,11.50
2012,05,19,08,40,11.30
2012,05,19,08,41,11.10
2012,05,19,08,42,11.10
2012,05,19,08,43,11.10
2012,05,19,08,44,11.10
2012,05,19,08,45,11.20
2012,05,19,08,46,11.30
2012,05,19,08,47,11.40
2012,05,19,08,48,11.50
2012,05,19,08,49,11.60
2012,05,19,08,50,11.70
2012,05,19,08,51,11.70
2012,05,19,08,52,11.80
2012,05,19,08,53,11.80
2012,05,19,08,54,11.80
2012,05,19,08,55,11.80
2012,05,19,08,56,11.90
2012,05,19,08,57,11.90
2012,05,19,08,58,11.80
2012,05,19,08,59,11.80
2012,05,19,09,00,11.70
2012,05,19,09,01,11.60
2012,05,19,09,02,11.60
2012,05,19,09,03,11.60
2012,05,19,09,04,11.60
2012,05,19,09,05,11.60
2012,05,19,09,06,11.70
2012,05,19,09,07,11.80
2012,05,19,09,08,11.80
2012,05,19,09,09,11.80
2012,05,19,09,10,11.90
2012,05,19,09,11,12.00
2012,05,19,09,12,12.00
2012,05,19,09,13,12.00
2012,05,19,09,14,11.90
2012,05,19,09,15,11.80
2012,05,19,09,16,11.60
2012,05,19,09,17,11.50
2012,05,19,09,18,11.40
2012,05,19,09,19,11.40
2012,05,19,09,20,11.50
2012,05,19,09,21,11.60
2012,05,19,09,22,11.60
2012,05,19,09,23,11.50
2012,05,19,09,24,11.40
2012,05,19,09,25,11.50
2012,05,19,09,26,11.60
2012,05,19,09,27,11.60
2012,05,19,09,28,11.70
2012,05,19,09,29,11.80
2012,05,19,09,30,11.90
2012,05,19,09,31,11.90
2012,05,19,09,32,11.90
2012,05,19,09,33,11.90
2012,05,19,09,34,12.00
2012,05,19,09,35,12.00
2012,05,19,09,36,12.00
2012,05,19,09,37,12.10
2012,05,19,09,38,12.10
2012,05,19,09,39,12.00
2012,05,19,09,40,11.90
2012,05,19,09,41,11.80
2012,05,19,09,42,11.80
2012,05,19,09,43,11.80
2012,05,19,09,44,11.80
2012,05,19,09,45,11.80
2012,05,19,09,46,11.70
2012,05,19,09,47,11.80
2012,05,19,09,48,11.80
2012,05,19,09,49,11.80
2012,05,19,09,50,11.90
2012,05,19,09,51,12.00
2012,05,19,09,52,12.10
2012,05,19,09,53,12.30
2012,05,19,09,54,12.40
2012,05,19,09,55,12.50
2012,05,19,09,56,12.60
2012,05,19,09,57,12.60
2012,05,19,09,58,12.70
2012,05,19,09,59,12.80
2012,05,19,10,00,12.90
2012,05,19,10,01,13.00
2012,05,19,10,02,13.00
2012,05,19,10,03,13.00
2012,05,19,10,04,12.90
2012,05,19,10,05,12.90
2012,05,19,10,06,12.80
2012,05,19,10,07,12.80
2012,05,19,10,08,12.80
2012,05,19,10,09,12.70
2012,05,19,10,10,12.60
2012,05,19,10,11,12.60
2012,05,19,10,12,12.60
2012,05,19,10,13,12.50
2012,05,19,10,14,12.40
2012,05,19,10,15,12.40
2012,05,19,10,16,12.40
2012,05,19,10,17,12.40
2012,05,19,10,18,12.40
2012,05,19,10,19,12.30
2012,05,19,10,20,12.30
2012,05,19,10,21,12.20
2012,05,19,10,22,12.20
2012,05,19,10,23,12.20
2012,05,19,10,24,12.20
2012,05,19,10,25,12.20
2012,05,19,10,26,12.30
2012,05,19,10,27,12.30
2012,05,19,10,28,12.30
2012,05,19,10,29,12.40
2012,05,19,10,30,12.40
2012,05,19,10,31,12.40
2012,05,19,10,32,12.30
2012,05,19,10,33,12.30
2012,05,19,10,34,12.20
2012,05,19,10,35,12.20
2012,05,19,10,36,12.30
2012,05,19,10,37,12.40
2012,05,19,10,38,12.50
2012,05,19,10,39,12.60
2012,05,19,10,40,12.60
2012,05,19,10,41,12.40
2012,05,19,10,42,12.20
2012,05,19,10,43,12.00
2012,05,19,10,44,11.90
2012,05,19,10,45,12.00
2012,05,19,10,46,12.10
2012,05,19,10,47,12.30
2012,05,19,10,48,12.40
2012,05,19,10,49,12.50
2012,05,19,10,50,12.40
2012,05,19,10,51,12.40
2012,05,19,10,52,12.50
2012,05,19,10,53,12.50
2012,05,19,10,54,12.60
2012,05,19,10,55,12.60
2012,05,19,10,56,12.60
2012,05,19,10,57,12.50
2012,05,19,10,58,12.40
2012,05,19,10,59,12.40
2012,05,19,11,00,12.50
2012,05,19,11,01,12.50
2012,05,19,11,02,12.60
2012,05,19,11,03,12.60
2012,05,19,11,04,12.60
2012,05,19,11,05,12.60
2012,05,19,11,06,12.70
2012,05,19,11,07,12.50
2012,05,19,11,08,12.50
2012,05,19,11,09,12.50
2012,05,19,11,10,12.40
2012,05,19,11,11,12.30
2012,05,19,11,12,12.40
2012,05,19,11,13,12.50
2012,05,19,11,14,12.50
2012,05,19,11,15,12.50
2012,05,19,11,16,12.50
2012,05,19,11,17,12.70
2012,05,19,11,18,12.60
2012,05,19,11,19,12.40
2012,05,19,11,20,12.30
2012,05,19,11,21,12.20
2012,05,19,11,22,12.20
2012,05,19,11,23,12.20
2012,05,19,11,24,12.20
2012,05,19,11,25,12.10
2012,05,19,11,26,12.00
2012,05,19,11,27,12.10
2012,05,19,11,28,12.20
2012,05,19,11,29,12.40
2012,05,19,11,30,12.50
2012,05,19,11,31,12.60
2012,05,19,11,32,12.80
2012,05,19,11,33,12.90
2012,05,19,11,34,13.00
2012,05,19,11,35,13.00
2012,05,19,11,36,13.00
2012,05,19,11,37,13.00
2012,05,19,11,38,12.80
2012,05,19,11,39,12.80
2012,05,19,11,40,12.80
2012,05,19,11,41,12.70
2012,05,19,11,42,12.50
2012,05,19,11,43,12.30
2012,05,19,11,44,12.20
2012,05,19,11,45,12.20
2012,05,19,11,46,12.20
2012,05,19,11,47,12.40
2012,05,19,11,48,12.50
2012,05,19,11,49,12.50
2012,05,19,11,50,12.50
2012,05,19,11,51,12.70
2012,05,19,11,52,12.80
2012,05,19,11,53,12.80
2012,05,19,11,54,12.80
2012,05,19,11,55,12.80
2012,05,19,11,56,12.80
2012,05,19,11,57,12.80
2012,05,19,11,58,12.80
2012,05,19,11,59,12.80
2012,05,19,12,00,12.90
2012,05,19,12,01,13.10
2012,05,19,12,02,13.20
2012,05,19,12,03,13.40
2012,05,19,12,04,13.50
2012,05,19,12,05,13.70
2012,05,19,12,06,13.70
2012,05,19,12,07,13.80
2012,05,19,12,08,13.80
2012,05,19,12,09,14.00
2012,05,19,12,10,14.10
2012,05,19,12,11,14.20
2012,05,19,12,12,14.10
2012,05,19,12,13,14.10
2012,05,19,12,14,14.10
2012,05,19,12,15,14.20
2012,05,19,12,16,14.20
2012,05,19,12,17,14.30
2012,05,19,12,18,14.30
2012,05,19,12,19,14.50
2012,05,19,12,20,14.50
2012,05,19,12,21,14.50
2012,05,19,12,22,14.50
2012,05,19,12,23,14.50
2012,05,19,12,24,14.60
2012,05,19,12,25,14.60
2012,05,19,12,26,14.70
2012,05,19,12,27,14.80
2012,05,19,12,28,14.80
2012,05,19,12,29,14.90
2012,05,19,12,30,14.80
2012,05,19,12,31,14.70
2012,05,19,12,32,14.70
2012,05,19,12,33,14.70
2012,05,19,12,34,14.70
2012,05,19,12,35,14.70
2012,05,19,12,36,14.70
2012,05,19,12,37,14.60
2012,05,19,12,38,14.70
2012,05,19,12,39,14.70
2012,05,19,12,40,14.60
2012,05,19,12,41,14.50
2012,05,19,12,42,14.40
2012,05,19,12,43,14.20
2012,05,19,12,44,14.20
2012,05,19,12,45,14.10
2012,05,19,12,46,14.10
2012,05,19,12,47,14.20
2012,05,19,12,48,14.30
2012,05,19,12,49,14.40
2012,05,19,12,50,14.50
2012,05,19,12,51,14.50
2012,05,19,12,52,14.50
2012,05,19,12,53,14.40
2012,05,19,12,54,14.20
2012,05,19,12,55,14.00
2012,05,19,12,56,13.80
2012,05,19,12,57,13.80
2012,05,19,12,58,14.00
2012,05,19,12,59,14.20
2012,05,19,13,00,14.20
2012,05,19,13,01,14.20
2012,05,19,13,02,14.40
2012,05,19,13,03,14.50
2012,05,19,13,04,14.60
2012,05,19,13,05,14.80
2012,05,19,13,06,14.80
2012,05,19,13,07,14.70
2012,05,19,13,08,14.70
2012,05,19,13,09,14.60
2012,05,19,13,10,14.50
2012,05,19,13,11,14.50
2012,05,19,13,12,14.50
2012,05,19,13,13,14.60
2012,05,19,13,14,14.80
2012,05,19,13,15,14.80
2012,05,19,13,16,14.80
2012,05,19,13,17,14.80
2012,05,19,13,18,14.80
2012,05,19,13,19,14.80
2012,05,19,13,20,14.80
2012,05,19,13,21,14.70
2012,05,19,13,22,14.60
2012,05,19,13,23,14.50
2012,05,19,13,24,14.40
2012,05,19,13,25,14.30
2012,05,19,13,26,13.90
2012,05,19,13,27,13.80
2012,05,19,13,28,13.80
2012,05,19,13,29,13.80
2012,05,19,13,30,13.90
2012,05,19,13,31,13.90
2012,05,19,13,32,14.00
2012,05,19,13,33,14.20
2012,05,19,13,34,14.30
2012,05,19,13,35,14.50
2012,05,19,13,36,14.50
2012,05,19,13,37,14.60
2012,05,19,13,38,14.50
2012,05,19,13,39,14.30
2012,05,19,13,40,14.20
2012,05,19,13,41,14.30
2012,05,19,13,42,14.40
2012,05,19,13,43,14.40
2012,05,19,13,44,14.60
2012,05,19,13,45,14.60
2012,05,19,13,46,14.40
2012,05,19,13,47,14.30
2012,05,19,13,48,14.40
2012,05,19,13,49,14.40
2012,05,19,13,50,14.50
2012,05,19,13,51,14.50
2012,05,19,13,52,14.50
2012,05,19,13,53,14.50
2012,05,19,13,54,14.60
2012,05,19,13,55,14.60
2012,05,19,13,56,14.60
2012,05,19,13,57,14.70
2012,05,19,13,58,14.80
2012,05,19,13,59,14.80
2012,05,19,14,00,14.80
2012,05,19,14,01,14.80
2012,05,19,14,02,14.80
2012,05,19,14,03,14.90
2012,05,19,14,04,14.80
2012,05,19,14,05,14.60
2012,05,19,14,06,14.40
2012,05,19,14,07,14.30
2012,05,19,14,08,14.30
2012,05,19,14,09,14.20
2012,05,19,14,10,14.10
2012,05,19,14,11,14.00
2012,05,19,14,12,14.10
2012,05,19,14,13,14.20
2012,05,19,14,14,14.10
2012,05,19,14,15,14.10
2012,05,19,14,16,14.30
2012,05,19,14,17,14.50
2012,05,19,14,18,14.40
2012,05,19,14,19,14.20
2012,05,19,14,20,14.10
2012,05,19,14,21,14.10
2012,05,19,14,22,14.10
2012,05,19,14,23,14.10
2012,05,19,14,24,14.00
2012,05,19,14,25,14.00
2012,05,19,14,26,14.10
2012,05,19,14,27,14.20
2012,05,19,14,28,14.40
2012,05,19,14,29,14.50
2012,05,19,14,30,14.60
2012,05,19,14,31,14.60
2012,05,19,14,32,14.70
2012,05,19,14,33,14.80
2012,05,19,14,34,14.90
2012,05,19,14,35,15.00
2012,05,19,14,36,15.00
2012,05,19,14,37,14.80
2012,05,19,14,38,14.70
2012,05,19,14,39,14.60
2012,05,19,14,40,14.60
2012,05,19,14,41,14.60
2012,05,19,14,42,14.60
2012,05,19,14,43,14.70
2012,05,19,14,44,14.90
2012,05,19,14,45,14.90
2012,05,19,14,46,14.80
2012,05,19,14,47,14.60
2012,05,19,14,48,14.60
2012,05,19,14,49,14.70
2012,05,19,14,50,14.90
2012,05,19,14,51,14.90
2012,05,19,14,52,14.80
2012,05,19,14,53,14.90
2012,05,19,14,54,15.00
2012,05,19,14,55,15.10
2012,05,19,14,56,15.20
2012,05,19,14,57,15.30
2012,05,19,14,58,15.20
2012,05,19,14,59,15.20
2012,05,19,15,00,15.20
2012,05,19,15,01,15.20
2012,05,19,15,02,15.30
2012,05,19,15,03,15.40
2012,05,19,15,04,15.50
2012,05,19,15,05,15.50
2012,05,19,15,06,15.60
2012,05,19,15,07,15.70
2012,05,19,15,08,15.80
2012,05,19,15,09,15.80
2012,05,19,15,10,15.80
2012,05,19,15,11,15.70
2012,05,19,15,12,15.60
2012,05,19,15,13,15.50
2012,05,19,15,14,15.50
2012,05,19,15,15,15.50
2012,05,19,15,16,15.50
2012,05,19,15,17,15.50
2012,05,19,15,18,15.50
2012,05,19,15,19,15.40
2012,05,19,15,20,15.40
2012,05,19,15,21,15.50
2012,05,19,15,22,15.60
2012,05,19,15,23,15.70
2012,05,19,15,24,15.80
2012,05,19,15,25,15.80
2012,05,19,15,26,15.80
2012,05,19,15,27,15.70
2012,05,19,15,28,15.80
2012,05,19,15,29,15.90
2012,05,19,15,30,16.00
2012,05,19,15,31,16.20
2012,05,19,15,32,16.30
2012,05,19,15,33,16.50
2012,05,19,15,34,16.60
2012,05,19,15,35,16.70
2012,05,19,15,36,16.80
2012,05,19,15,37,16.90
2012,05,19,15,38,16.90
2012,05,19,15,39,16.90
2012,05,19,15,40,16.80
2012,05,19,15,41,16.90
2012,05,19,15,42,17.00
2012,05,19,15,43,17.00
2012,05,19,15,44,17.10
2012,05,19,15,45,17.20
2012,05,19,15,46,17.10
2012,05,19,15,47,17.00
2012,05,19,15,48,17.10
2012,05,19,15,49,17.00
2012,05,19,15,50,16.90
2012,05,19,15,51,16.70
2012,05,19,15,52,16.40
2012,05,19,15,53,16.30
2012,05,19,15,54,16.30
2012,05,19,15,55,16.30
2012,05,19,15,56,16.30
2012,05,19,15,57,16.40
2012,05,19,15,58,16.40
2012,05,19,15,59,16.40
2012,05,19,16,00,16.40
2012,05,19,16,01,16.30
2012,05,19,16,02,16.20
2012,05,19,16,03,16.10
2012,05,19,16,04,15.90
2012,05,19,16,05,15.80
2012,05,19,16,06,15.80
2012,05,19,16,07,15.70
2012,05,19,16,08,15.70
2012,05,19,16,09,15.80
2012,05,19,16,10,15.80
2012,05,19,16,11,15.70
2012,05,19,16,12,15.60
2012,05,19,16,13,15.50
2012,05,19,16,14,15.40
2012,05,19,16,15,15.40
2012,05,19,16,16,15.30
2012,05,19,16,17,15.30
2012,05,19,16,18,15.30
2012,05,19,16,19,15.40
2012,05,19,16,20,15.50
2012,05,19,16,21,15.50
2012,05,19,16,22,15.60
2012,05,19,16,23,15.60
2012,05,19,16,24,15.60
2012,05,19,16,25,15.70
2012,05,19,16,26,15.80
2012,05,19,16,27,15.70
2012,05,19,16,28,15.60
2012,05,19,16,29,15.50
2012,05,19,16,30,15.50
2012,05,19,16,31,15.50
2012,05,19,16,32,15.50
2012,05,19,16,33,15.50
2012,05,19,16,34,15.40
2012,05,19,16,35,15.40
2012,05,19,16,36,15.40
2012,05,19,16,37,15.30
2012,05,19,16,38,15.30
2012,05,19,16,39,15.20
2012,05,19,16,40,15.30
2012,05,19,16,41,15.30
2012,05,19,16,42,15.40
2012,05,19,16,43,15.40
2012,05,19,16,44,15.30
2012,05,19,16,45,15.30
2012,05,19,16,46,15.40
2012,05,19,16,47,15.50
2012,05,19,16,48,15.50
2012,05,19,16,49,15.50
2012,05,19,16,50,15.60
2012,05,19,16,51,15.60
2012,05,19,16,52,15.60
2012,05,19,16,53,15.70
2012,05,19,16,54,15.60
2012,05,19,16,55,15.60
2012,05,19,16,56,15.60
2012,05,19,16,57,15.70
2012,05,19,16,58,15.70
2012,05,19,16,59,15.80
2012,05,19,17,00,15.80
2012,05,19,17,01,15.80
2012,05,19,17,02,15.80
2012,05,19,17,03,15.80
2012,05,19,17,04,15.80
2012,05,19,17,05,15.80
2012,05,19,17,06,15.80
2012,05,19,17,07,15.90
2012,05,19,17,08,15.90
2012,05,19,17,09,15.80
2012,05,19,17,10,15.80
2012,05,19,17,11,15.70
2012,05,19,17,12,15.60
2012,05,19,17,13,15.60
2012,05,19,17,14,15.60
2012,05,19,17,15,15.60
2012,05,19,17,16,15.60
2012,05,19,17,17,15.60
2012,05,19,17,18,15.60
2012,05,19,17,19,15.70
2012,05,19,17,20,15.80
2012,05,19,17,21,15.80
2012,05,19,17,22,15.80
2012,05,19,17,23,15.70
2012,05,19,17,24,15.70
2012,05,19,17,25,15.60
2012,05,19,17,26,15.60
2012,05,19,17,27,15.60
2012,05,19,17,28,15.60
2012,05,19,17,29,15.60
2012,05,19,17,30,15.60
2012,05,19,17,31,15.60
2012,05,19,17,32,15.60
2012,05,19,17,33,15.60
2012,05,19,17,34,15.60
2012,05,19,17,35,15.60
2012,05,19,17,36,15.60
2012,05,19,17,37,15.70
2012,05,19,17,38,15.70
2012,05,19,17,39,15.80